Time,TemperatureF,DewpointF,PressureIn,WindDirection,WindDirectionDegrees,WindSpeedMPH,WindSpeedGustMPH,Humidity,HourlyPrecipIn,Conditions,Clouds,dailyrainin,SoftwareType,DateUTC
2013-06-26 00:00:00,78.9,27.3,29.63,NW,317,0.0,0.0,15,0.00,,,0.00,Wunderground v.1.15,2013-06-26 06:00:00,
2013-06-26 00:05:00,78.7,28.7,29.62,NW,317,0.0,0.0,16,0.00,,,0.00,Wunderground v.1.15,2013-06-26 06:05:00,
2013-06-26 00:15:00,78.0,26.6,29.63,NW,317,0.0,0.0,15,0.00,,,0.00,Wunderground v.1.15,2013-06-26 06:15:00,
2013-06-26 00:20:00,77.7,27.9,29.63,NW,317,0.0,0.0,16,0.00,,,0.00,Wunderground v.1.15,2013-06-26 06:20:00,
2013-06-26 00:30:00,76.9,25.7,29.63,NW,317,0.0,0.0,15,0.00,,,0.00,Wunderground v.1.15,2013-06-26 06:30:00,
2013-06-26 00:35:00,76.5,25.4,29.63,NW,317,0.0,0.0,15,0.00,,,0.00,Wunderground v.1.15,2013-06-26 06:35:00,
2013-06-26 00:45:00,75.8,24.8,29.64,NW,317,0.0,0.0,15,0.00,,,0.00,Wunderground v.1.15,2013-06-26 06:45:00,
2013-06-26 00:50:00,75.5,24.6,29.64,NW,317,0.0,0.0,15,0.00,,,0.00,Wunderground v.1.15,2013-06-26 06:50:00,
2013-06-26 00:55:00,75.3,24.4,29.64,NW,317,0.0,0.0,15,0.00,,,0.00,Wunderground v.1.15,2013-06-26 06:55:00,
2013-06-26 01:00:00,75.1,24.3,29.64,NW,317,0.0,0.0,15,0.00,,,0.00,Wunderground v.1.15,2013-06-26 07:00:00,
2013-06-26 01:05:00,74.7,23.9,29.63,NW,317,0.0,0.0,15,0.00,,,0.00,Wunderground v.1.15,2013-06-26 07:05:00,
2013-06-26 01:15:00,74.2,25.1,29.63,NW,317,0.0,0.0,16,0.00,,,0.00,Wunderground v.1.15,2013-06-26 07:15:00,
2013-06-26 01:20:00,74.1,25.0,29.63,NW,317,0.0,0.0,16,0.00,,,0.00,Wunderground v.1.15,2013-06-26 07:20:00,
2013-06-26 01:25:00,73.9,24.8,29.63,NW,317,0.0,0.0,16,0.00,,,0.00,Wunderground v.1.15,2013-06-26 07:25:00,
2013-06-26 01:35:00,73.5,24.5,29.63,NW,317,0.0,0.0,16,0.00,,,0.00,Wunderground v.1.15,2013-06-26 07:35:00,
2013-06-26 01:40:00,73.3,25.8,29.63,NW,317,0.0,0.0,17,0.00,,,0.00,Wunderground v.1.15,2013-06-26 07:40:00,
2013-06-26 01:45:00,73.1,25.7,29.63,NW,317,0.0,0.0,17,0.00,,,0.00,Wunderground v.1.15,2013-06-26 07:45:00,
2013-06-26 01:50:00,72.9,25.5,29.63,NW,317,0.0,0.0,17,0.00,,,0.00,Wunderground v.1.15,2013-06-26 07:50:00,
2013-06-26 01:55:00,72.8,25.4,29.63,NW,317,0.0,0.0,17,0.00,,,0.00,Wunderground v.1.15,2013-06-26 07:55:00,
2013-06-26 02:00:00,72.6,25.3,29.63,NW,317,0.0,0.0,17,0.00,,,0.00,Wunderground v.1.15,2013-06-26 08:00:00,
2013-06-26 02:05:00,72.5,26.5,29.64,NW,317,0.0,0.0,18,0.00,,,0.00,Wunderground v.1.15,2013-06-26 08:05:00,
2013-06-26 02:15:00,72.2,26.3,29.63,NW,317,0.0,0.0,18,0.00,,,0.00,Wunderground v.1.15,2013-06-26 08:15:00,
2013-06-26 02:25:00,72.0,26.1,29.64,NW,317,0.0,0.0,18,0.00,,,0.00,Wunderground v.1.15,2013-06-26 08:25:00,
2013-06-26 02:30:00,71.8,26.0,29.64,NW,317,0.0,0.0,18,0.00,,,0.00,Wunderground v.1.15,2013-06-26 08:30:00,
2013-06-26 02:35:00,71.6,27.1,29.64,NW,317,0.0,0.0,19,0.00,,,0.00,Wunderground v.1.15,2013-06-26 08:35:00,
2013-06-26 02:40:00,71.5,27.0,29.64,NW,317,0.0,0.0,19,0.00,,,0.00,Wunderground v.1.15,2013-06-26 08:40:00,
2013-06-26 02:45:00,71.3,26.9,29.65,NW,317,0.0,0.0,19,0.00,,,0.00,Wunderground v.1.15,2013-06-26 08:45:00,
2013-06-26 02:50:00,71.1,25.4,29.65,NW,317,0.0,0.0,18,0.00,,,0.00,Wunderground v.1.15,2013-06-26 08:50:00,
2013-06-26 03:00:00,70.9,25.2,29.64,NW,317,0.0,0.0,18,0.00,,,0.00,Wunderground v.1.15,2013-06-26 09:00:00,
2013-06-26 03:05:00,70.8,25.2,29.64,NW,317,0.0,0.0,18,0.00,,,0.00,Wunderground v.1.15,2013-06-26 09:05:00,
2013-06-26 03:15:00,70.7,25.1,29.64,NW,317,0.0,0.0,18,0.00,,,0.00,Wunderground v.1.15,2013-06-26 09:15:00,
2013-06-26 03:20:00,70.6,25.0,29.64,NW,317,0.0,0.0,18,0.00,,,0.00,Wunderground v.1.15,2013-06-26 09:20:00,
2013-06-26 03:25:00,70.5,24.9,29.63,NW,317,0.0,0.0,18,0.00,,,0.00,Wunderground v.1.15,2013-06-26 09:25:00,
2013-06-26 03:30:00,70.4,24.8,29.64,NW,317,0.0,0.0,18,0.00,,,0.00,Wunderground v.1.15,2013-06-26 09:30:00,
2013-06-26 03:35:00,70.4,26.1,29.64,NW,317,0.0,0.0,19,0.00,,,0.00,Wunderground v.1.15,2013-06-26 09:35:00,
2013-06-26 03:40:00,70.4,26.1,29.64,NW,318,0.0,0.0,19,0.00,,,0.00,Wunderground v.1.15,2013-06-26 09:40:00,
2013-06-26 03:45:00,70.4,24.8,29.64,NW,317,0.0,0.0,18,0.00,,,0.00,Wunderground v.1.15,2013-06-26 09:45:00,
2013-06-26 03:50:00,70.3,24.8,29.65,NW,317,0.0,0.0,18,0.00,,,0.00,Wunderground v.1.15,2013-06-26 09:50:00,
2013-06-26 04:00:00,70.1,25.9,29.64,NW,317,0.0,0.0,19,0.00,,,0.00,Wunderground v.1.15,2013-06-26 10:00:00,
2013-06-26 04:05:00,70.0,25.8,29.64,NW,317,0.0,0.0,19,0.00,,,0.00,Wunderground v.1.15,2013-06-26 10:05:00,
2013-06-26 04:15:00,69.6,25.5,29.65,NW,317,0.0,0.0,19,0.00,,,0.00,Wunderground v.1.15,2013-06-26 10:15:00,
2013-06-26 04:20:00,69.3,25.2,29.66,NW,317,0.0,0.0,19,0.00,,,0.00,Wunderground v.1.15,2013-06-26 10:20:00,
2013-06-26 04:30:00,68.8,24.8,29.66,NW,317,0.0,0.0,19,0.00,,,0.00,Wunderground v.1.15,2013-06-26 10:30:00,
2013-06-26 04:35:00,68.6,24.7,29.66,NW,317,0.0,0.0,19,0.00,,,0.00,Wunderground v.1.15,2013-06-26 10:35:00,
2013-06-26 04:40:00,68.5,25.8,29.66,NW,317,0.0,0.0,20,0.00,,,0.00,Wunderground v.1.15,2013-06-26 10:40:00,
2013-06-26 04:45:00,68.3,26.8,29.67,NW,317,0.0,0.0,21,0.00,,,0.00,Wunderground v.1.15,2013-06-26 10:45:00,
2013-06-26 04:50:00,68.0,25.4,29.67,NW,317,0.0,0.0,20,0.00,,,0.00,Wunderground v.1.15,2013-06-26 10:50:00,
2013-06-26 04:55:00,67.8,26.4,29.67,NW,317,0.0,0.0,21,0.00,,,0.00,Wunderground v.1.15,2013-06-26 10:55:00,
2013-06-26 05:00:00,67.6,26.2,29.67,NW,317,0.0,0.0,21,0.00,,,0.00,Wunderground v.1.15,2013-06-26 11:00:00,
2013-06-26 05:10:00,67.1,24.6,29.69,NW,317,0.0,0.0,20,0.00,,,0.00,Wunderground v.1.15,2013-06-26 11:10:00,
2013-06-26 05:20:00,66.6,25.4,29.69,NW,317,0.0,0.0,21,0.00,,,0.00,Wunderground v.1.15,2013-06-26 11:20:00,
2013-06-26 05:25:00,66.3,24.0,29.70,NW,317,0.0,0.0,20,0.00,,,0.00,Wunderground v.1.15,2013-06-26 11:25:00,
2013-06-26 05:30:00,65.9,22.4,29.71,NW,317,0.0,0.0,19,0.00,,,0.00,Wunderground v.1.15,2013-06-26 11:30:00,
2013-06-26 05:35:00,65.4,22.0,29.71,NW,317,0.0,0.0,19,0.00,,,0.00,Wunderground v.1.15,2013-06-26 11:35:00,
2013-06-26 05:40:00,65.0,21.7,29.71,NW,317,0.0,0.0,19,0.00,,,0.00,Wunderground v.1.15,2013-06-26 11:40:00,
2013-06-26 05:45:00,64.7,21.4,29.71,NW,317,0.0,0.0,19,0.00,,,0.00,Wunderground v.1.15,2013-06-26 11:45:00,
2013-06-26 05:55:00,64.4,21.2,29.72,North,360,0.0,0.0,19,0.00,,,0.00,Wunderground v.1.15,2013-06-26 11:55:00,
2013-06-26 06:00:00,64.4,22.4,29.72,North,360,0.0,0.0,20,0.00,,,0.00,Wunderground v.1.15,2013-06-26 12:00:00,
2013-06-26 06:05:00,64.4,22.4,29.72,North,360,0.0,0.0,20,0.00,,,0.00,Wunderground v.1.15,2013-06-26 12:05:00,
2013-06-26 06:15:00,64.6,22.6,29.73,North,360,0.0,0.0,20,0.00,,,0.00,Wunderground v.1.15,2013-06-26 12:15:00,
2013-06-26 06:20:00,64.6,22.6,29.74,North,360,0.0,0.0,20,0.00,,,0.00,Wunderground v.1.15,2013-06-26 12:20:00,
2013-06-26 06:30:00,64.6,22.6,29.74,North,360,0.0,0.0,20,0.00,,,0.00,Wunderground v.1.15,2013-06-26 12:30:00,
2013-06-26 06:35:00,64.5,22.5,29.74,North,360,0.0,0.0,20,0.00,,,0.00,Wunderground v.1.15,2013-06-26 12:35:00,
2013-06-26 06:40:00,64.4,21.2,29.74,North,360,0.0,0.0,19,0.00,,,0.00,Wunderground v.1.15,2013-06-26 12:40:00,
2013-06-26 06:45:00,64.2,22.2,29.74,North,360,0.0,0.0,20,0.00,,,0.00,Wunderground v.1.15,2013-06-26 12:45:00,
2013-06-26 06:50:00,64.1,22.2,29.74,North,360,0.0,0.0,20,0.00,,,0.00,Wunderground v.1.15,2013-06-26 12:50:00,
2013-06-26 07:00:00,63.7,23.0,29.74,North,360,0.0,0.0,21,0.00,,,0.00,Wunderground v.1.15,2013-06-26 13:00:00,
2013-06-26 07:05:00,63.7,24.1,29.76,North,360,0.0,0.0,22,0.00,,,0.00,Wunderground v.1.15,2013-06-26 13:05:00,
2013-06-26 07:15:00,63.8,25.3,29.77,North,360,0.0,0.0,23,0.00,,,0.00,Wunderground v.1.15,2013-06-26 13:15:00,
2013-06-26 07:20:00,63.9,26.4,29.77,North,360,0.0,0.0,24,0.00,,,0.00,Wunderground v.1.15,2013-06-26 13:20:00,
2013-06-26 07:25:00,64.2,26.6,29.77,North,360,0.0,0.0,24,0.00,,,0.00,Wunderground v.1.15,2013-06-26 13:25:00,
2013-06-26 07:30:00,64.6,27.0,29.77,North,360,0.0,0.0,24,0.00,,,0.00,Wunderground v.1.15,2013-06-26 13:30:00,
2013-06-26 07:35:00,65.0,28.3,29.77,North,360,0.0,0.0,25,0.00,,,0.00,Wunderground v.1.15,2013-06-26 13:35:00,
2013-06-26 07:45:00,66.1,30.2,29.76,North,360,0.0,0.0,26,0.00,,,0.00,Wunderground v.1.15,2013-06-26 13:45:00,
2013-06-26 07:50:00,66.7,32.5,29.76,North,360,0.0,0.0,28,0.00,,,0.00,Wunderground v.1.15,2013-06-26 13:50:00,
2013-06-26 07:55:00,67.5,34.1,29.76,North,360,0.0,0.0,29,0.00,,,0.00,Wunderground v.1.15,2013-06-26 13:55:00,
2013-06-26 08:00:00,68.3,34.8,29.76,North,360,0.0,0.0,29,0.00,,,0.00,Wunderground v.1.15,2013-06-26 14:00:00,
2013-06-26 08:05:00,69.2,33.8,29.78,North,360,0.0,0.0,27,0.00,,,0.00,Wunderground v.1.15,2013-06-26 14:05:00,
2013-06-26 08:15:00,70.9,35.2,29.77,North,360,0.0,0.0,27,0.00,,,0.00,Wunderground v.1.15,2013-06-26 14:15:00,
2013-06-26 08:20:00,71.8,36.0,29.76,North,360,0.0,0.0,27,0.00,,,0.00,Wunderground v.1.15,2013-06-26 14:20:00,
2013-06-26 08:25:00,72.8,37.8,29.76,North,360,0.0,0.0,28,0.00,,,0.00,Wunderground v.1.15,2013-06-26 14:25:00,
2013-06-26 08:35:00,74.7,35.5,29.75,North,360,0.0,0.0,24,0.00,,,0.00,Wunderground v.1.15,2013-06-26 14:35:00,
2013-06-26 08:45:00,76.6,34.9,29.75,North,360,0.0,0.0,22,0.00,,,0.00,Wunderground v.1.15,2013-06-26 14:45:00,
2013-06-26 08:50:00,77.4,33.2,29.75,North,360,0.0,0.0,20,0.00,,,0.00,Wunderground v.1.15,2013-06-26 14:50:00,
2013-06-26 08:55:00,78.3,29.9,29.75,North,350,0.0,0.0,17,0.00,,,0.00,Wunderground v.1.15,2013-06-26 14:55:00,
2013-06-26 09:00:00,79.0,30.4,29.75,NW,317,0.0,0.0,17,0.00,,,0.00,Wunderground v.1.15,2013-06-26 15:00:00,
2013-06-26 09:05:00,79.8,35.1,29.76,NW,317,0.0,0.0,20,0.00,,,0.00,Wunderground v.1.15,2013-06-26 15:05:00,
2013-06-26 09:15:00,81.6,32.5,29.75,NW,317,0.0,0.0,17,0.00,,,0.00,Wunderground v.1.15,2013-06-26 15:15:00,
2013-06-26 09:25:00,83.5,34.1,29.74,NW,317,0.0,0.0,17,0.00,,,0.00,Wunderground v.1.15,2013-06-26 15:25:00,
2013-06-26 09:30:00,84.8,35.1,29.74,NW,317,0.0,0.0,17,0.00,,,0.00,Wunderground v.1.15,2013-06-26 15:30:00,
2013-06-26 09:35:00,85.9,32.9,29.73,NNW,344,0.0,0.0,15,0.00,,,0.00,Wunderground v.1.15,2013-06-26 15:35:00,
2013-06-26 09:40:00,86.7,33.5,29.73,NNW,327,0.0,0.0,15,0.00,,,0.00,Wunderground v.1.15,2013-06-26 15:40:00,
2013-06-26 09:45:00,87.3,34.0,29.73,NNW,327,0.0,0.0,15,0.00,,,0.00,Wunderground v.1.15,2013-06-26 15:45:00,
2013-06-26 09:50:00,88.0,32.8,29.72,NW,313,0.0,0.0,14,0.00,,,0.00,Wunderground v.1.15,2013-06-26 15:50:00,
2013-06-26 09:55:00,88.7,35.1,29.73,NNW,327,0.0,0.0,15,0.00,,,0.00,Wunderground v.1.15,2013-06-26 15:55:00,
2013-06-26 10:00:00,89.3,33.8,29.72,NW,311,0.0,0.0,14,0.00,,,0.00,Wunderground v.1.15,2013-06-26 16:00:00,
2013-06-26 10:05:00,90.0,32.5,29.72,NNW,342,0.0,2.0,13,0.00,,,0.00,Wunderground v.1.15,2013-06-26 16:05:00,
2013-06-26 10:15:00,90.5,30.9,29.72,SW,227,1.0,5.0,12,0.00,,,0.00,Wunderground v.1.15,2013-06-26 16:15:00,
2013-06-26 10:25:00,91.6,35.7,29.71,SW,227,0.0,0.0,14,0.00,,,0.00,Wunderground v.1.15,2013-06-26 16:25:00,
2013-06-26 10:35:00,92.6,32.6,29.70,NNW,329,0.0,0.0,12,0.00,,,0.00,Wunderground v.1.15,2013-06-26 16:35:00,
2013-06-26 10:40:00,93.2,30.9,29.71,NNW,345,0.0,5.0,11,0.00,,,0.00,Wunderground v.1.15,2013-06-26 16:40:00,
2013-06-26 10:45:00,93.6,33.3,29.71,NW,319,0.0,5.0,12,0.00,,,0.00,Wunderground v.1.15,2013-06-26 16:45:00,
2013-06-26 10:50:00,94.3,31.7,29.71,NW,306,0.0,10.0,11,0.00,,,0.00,Wunderground v.1.15,2013-06-26 16:50:00,
2013-06-26 11:00:00,94.8,32.1,29.70,NNW,333,2.0,2.0,11,0.00,,,0.00,Wunderground v.1.15,2013-06-26 17:00:00,
2013-06-26 11:05:00,95.2,32.4,29.72,NW,321,1.0,2.0,11,0.00,,,0.00,Wunderground v.1.15,2013-06-26 17:05:00,
2013-06-26 11:15:00,95.6,32.7,29.71,NNW,344,1.0,1.0,11,0.00,,,0.00,Wunderground v.1.15,2013-06-26 17:15:00,
2013-06-26 11:20:00,95.8,32.9,29.72,NW,321,1.0,1.0,11,0.00,,,0.00,Wunderground v.1.15,2013-06-26 17:20:00,
2013-06-26 11:25:00,96.0,35.2,29.71,NW,321,1.0,1.0,12,0.00,,,0.00,Wunderground v.1.15,2013-06-26 17:25:00,
2013-06-26 11:30:00,96.4,33.3,29.72,West,277,0.0,1.0,11,0.00,,,0.00,Wunderground v.1.15,2013-06-26 17:30:00,
2013-06-26 11:35:00,96.5,35.6,29.70,WNW,296,0.0,1.0,12,0.00,,,0.00,Wunderground v.1.15,2013-06-26 17:35:00,
2013-06-26 11:45:00,96.5,31.0,29.71,WNW,303,1.0,1.0,10,0.00,,,0.00,Wunderground v.1.15,2013-06-26 17:45:00,
2013-06-26 11:50:00,96.1,35.3,29.71,WNW,292,1.0,1.0,12,0.00,,,0.00,Wunderground v.1.15,2013-06-26 17:50:00,
2013-06-26 11:55:00,96.3,33.2,29.71,WNW,294,0.0,1.0,11,0.00,,,0.00,Wunderground v.1.15,2013-06-26 17:55:00,
2013-06-26 12:05:00,97.1,33.9,29.72,NW,324,0.0,0.0,11,0.00,,,0.00,Wunderground v.1.15,2013-06-26 18:05:00,
2013-06-26 12:15:00,98.2,34.7,29.71,NW,314,0.0,0.0,11,0.00,,,0.00,Wunderground v.1.15,2013-06-26 18:15:00,
2013-06-26 12:20:00,98.6,32.6,29.70,WNW,296,1.0,1.0,10,0.00,,,0.00,Wunderground v.1.15,2013-06-26 18:20:00,
2013-06-26 12:25:00,98.9,32.8,29.70,NW,309,0.0,1.0,10,0.00,,,0.00,Wunderground v.1.15,2013-06-26 18:25:00,
2013-06-26 12:30:00,99.2,35.5,29.70,West,281,0.0,0.0,11,0.00,,,0.00,Wunderground v.1.15,2013-06-26 18:30:00,
2013-06-26 12:40:00,99.9,36.0,29.70,NW,313,0.0,0.0,11,0.00,,,0.00,Wunderground v.1.15,2013-06-26 18:40:00,
2013-06-26 12:50:00,100.4,34.0,29.70,NW,319,1.0,1.0,10,0.00,,,0.00,Wunderground v.1.15,2013-06-26 18:50:00,
2013-06-26 12:55:00,100.9,34.4,29.69,NW,309,1.0,7.0,10,0.00,,,0.00,Wunderground v.1.15,2013-06-26 18:55:00,
2013-06-26 13:00:00,101.2,34.6,29.69,NNW,347,1.0,1.0,10,0.00,,,0.00,Wunderground v.1.15,2013-06-26 19:00:00,
2013-06-26 13:05:00,102.0,32.5,29.69,NNW,332,1.0,1.0,9,0.00,,,0.00,Wunderground v.1.15,2013-06-26 19:05:00,
2013-06-26 13:15:00,103.4,36.2,29.68,NNE,30,0.0,1.0,10,0.00,,,0.00,Wunderground v.1.15,2013-06-26 19:15:00,
2013-06-26 13:25:00,103.5,33.7,29.68,NNW,333,0.0,0.0,9,0.00,,,0.00,Wunderground v.1.15,2013-06-26 19:25:00,
2013-06-26 13:30:00,104.0,34.0,29.68,NNW,338,0.0,0.0,9,0.00,,,0.00,Wunderground v.1.15,2013-06-26 19:30:00,
2013-06-26 13:35:00,104.1,36.8,29.67,WNW,292,0.0,0.0,10,0.00,,,0.00,Wunderground v.1.15,2013-06-26 19:35:00,
2013-06-26 13:40:00,104.3,36.9,29.67,WNW,292,0.0,0.0,10,0.00,,,0.00,Wunderground v.1.15,2013-06-26 19:40:00,
2013-06-26 13:45:00,104.5,37.1,29.66,WNW,292,0.0,0.0,10,0.00,,,0.00,Wunderground v.1.15,2013-06-26 19:45:00,
2013-06-26 13:50:00,104.5,37.1,29.66,WNW,296,0.0,0.0,10,0.00,,,0.00,Wunderground v.1.15,2013-06-26 19:50:00,
2013-06-26 13:55:00,104.2,31.2,29.67,SE,140,1.0,1.0,8,0.00,,,0.00,Wunderground v.1.15,2013-06-26 19:55:00,
2013-06-26 14:00:00,104.1,36.8,29.66,WNW,302,1.0,1.0,10,0.00,,,0.00,Wunderground v.1.15,2013-06-26 20:00:00,
2013-06-26 14:10:00,104.1,34.1,29.67,WNW,291,0.0,0.0,9,0.00,,,0.00,Wunderground v.1.15,2013-06-26 20:10:00,
2013-06-26 14:15:00,104.6,37.1,29.66,West,280,0.0,0.0,10,0.00,,,0.00,Wunderground v.1.15,2013-06-26 20:15:00,
2013-06-26 14:20:00,105.0,34.8,29.65,ENE,74,1.0,2.0,9,0.00,,,0.00,Wunderground v.1.15,2013-06-26 20:20:00,
2013-06-26 14:25:00,105.1,34.9,29.66,NW,322,1.0,2.0,9,0.00,,,0.00,Wunderground v.1.15,2013-06-26 20:25:00,
2013-06-26 14:30:00,104.8,34.6,29.66,NW,326,1.0,1.0,9,0.00,,,0.00,Wunderground v.1.15,2013-06-26 20:30:00,
2013-06-26 14:35:00,104.6,34.5,29.66,NNW,331,0.0,2.0,9,0.00,,,0.00,Wunderground v.1.15,2013-06-26 20:35:00,
2013-06-26 14:40:00,104.8,37.3,29.65,WNW,295,0.0,0.0,10,0.00,,,0.00,Wunderground v.1.15,2013-06-26 20:40:00,
2013-06-26 14:45:00,104.8,37.3,29.65,NW,307,1.0,1.0,10,0.00,,,0.00,Wunderground v.1.15,2013-06-26 20:45:00,
2013-06-26 14:50:00,104.3,36.9,29.65,WNW,284,1.0,1.0,10,0.00,,,0.00,Wunderground v.1.15,2013-06-26 20:50:00,
2013-06-26 15:00:00,104.1,36.8,29.65,NNW,346,1.0,1.0,10,0.00,,,0.00,Wunderground v.1.15,2013-06-26 21:00:00,
2013-06-26 15:05:00,104.2,36.8,29.65,West,271,0.0,1.0,10,0.00,,,0.00,Wunderground v.1.15,2013-06-26 21:05:00,
2013-06-26 15:15:00,104.2,36.8,29.64,NW,306,0.0,0.0,10,0.00,,,0.00,Wunderground v.1.15,2013-06-26 21:15:00,
2013-06-26 15:25:00,104.3,34.3,29.64,WNW,286,0.0,0.0,9,0.00,,,0.00,Wunderground v.1.15,2013-06-26 21:25:00,
2013-06-26 15:30:00,104.3,31.3,29.64,SSW,210,0.0,0.0,8,0.00,,,0.00,Wunderground v.1.15,2013-06-26 21:30:00,
2013-06-26 15:35:00,104.2,34.2,29.64,SW,236,0.0,0.0,9,0.00,,,0.00,Wunderground v.1.15,2013-06-26 21:35:00,
2013-06-26 15:45:00,104.0,31.1,29.64,West,273,0.0,0.0,8,0.00,,,0.00,Wunderground v.1.15,2013-06-26 21:45:00,
2013-06-26 15:50:00,103.8,33.9,29.64,West,280,0.0,0.0,9,0.00,,,0.00,Wunderground v.1.15,2013-06-26 21:50:00,
2013-06-26 16:00:00,103.7,36.5,29.63,WNW,296,0.0,0.0,10,0.00,,,0.00,Wunderground v.1.15,2013-06-26 22:00:00,
2013-06-26 16:05:00,103.6,36.4,29.64,WNW,287,0.0,3.0,10,0.00,,,0.00,Wunderground v.1.15,2013-06-26 22:05:00,
2013-06-26 16:15:00,103.2,33.4,29.65,WNW,288,0.0,1.0,9,0.00,,,0.00,Wunderground v.1.15,2013-06-26 22:15:00,
2013-06-26 16:20:00,103.0,33.3,29.64,NNW,341,0.0,1.0,9,0.00,,,0.00,Wunderground v.1.15,2013-06-26 22:20:00,
2013-06-26 16:30:00,102.8,33.1,29.64,WSW,242,0.0,0.0,9,0.00,,,0.00,Wunderground v.1.15,2013-06-26 22:30:00,
2013-06-26 16:35:00,102.7,33.1,29.64,NE,37,0.0,0.0,9,0.00,,,0.00,Wunderground v.1.15,2013-06-26 22:35:00,
2013-06-26 16:40:00,102.6,33.0,29.64,West,265,0.0,0.0,9,0.00,,,0.00,Wunderground v.1.15,2013-06-26 22:40:00,
2013-06-26 16:45:00,102.5,30.0,29.64,South,179,0.0,0.0,8,0.00,,,0.00,Wunderground v.1.15,2013-06-26 22:45:00,
2013-06-26 16:50:00,102.5,32.9,29.64,WNW,300,0.0,0.0,9,0.00,,,0.00,Wunderground v.1.15,2013-06-26 22:50:00,
2013-06-26 16:55:00,102.6,33.0,29.63,NW,315,0.0,0.0,9,0.00,,,0.00,Wunderground v.1.15,2013-06-26 22:55:00,
2013-06-26 17:00:00,102.6,33.0,29.63,WNW,284,0.0,0.0,9,0.00,,,0.00,Wunderground v.1.15,2013-06-26 23:00:00,
2013-06-26 17:05:00,102.5,35.6,29.64,WNW,298,0.0,0.0,10,0.00,,,0.00,Wunderground v.1.15,2013-06-26 23:05:00,
2013-06-26 17:15:00,102.3,35.4,29.64,WSW,252,0.0,0.0,10,0.00,,,0.00,Wunderground v.1.15,2013-06-26 23:15:00,
2013-06-26 17:20:00,102.3,35.4,29.64,NNW,334,0.0,0.0,10,0.00,,,0.00,Wunderground v.1.15,2013-06-26 23:20:00,
2013-06-26 17:25:00,102.2,35.3,29.64,WNW,300,0.0,0.0,10,0.00,,,0.00,Wunderground v.1.15,2013-06-26 23:25:00,
2013-06-26 17:30:00,102.0,32.5,29.64,WNW,295,0.0,1.0,9,0.00,,,0.00,Wunderground v.1.15,2013-06-26 23:30:00,
2013-06-26 17:35:00,101.8,32.4,29.64,SSE,153,0.0,1.0,9,0.00,,,0.00,Wunderground v.1.15,2013-06-26 23:35:00,
2013-06-26 17:45:00,101.5,34.8,29.64,West,272,0.0,0.0,10,0.00,,,0.00,Wunderground v.1.15,2013-06-26 23:45:00,
2013-06-26 17:50:00,101.4,32.1,29.65,WNW,285,0.0,2.0,9,0.00,,,0.00,Wunderground v.1.15,2013-06-26 23:50:00,
2013-06-26 17:55:00,101.3,34.7,29.64,NNW,330,0.0,2.0,10,0.00,,,0.00,Wunderground v.1.15,2013-06-26 23:55:00,
2013-06-26 18:00:00,101.2,31.9,29.64,WSW,254,0.0,0.0,9,0.00,,,0.00,Wunderground v.1.15,2013-06-27 00:00:00,
2013-06-26 18:05:00,101.2,29.0,29.64,ESE,116,0.0,0.0,8,0.00,,,0.00,Wunderground v.1.15,2013-06-27 00:05:00,
2013-06-26 18:15:00,101.1,34.5,29.64,SSW,211,0.0,0.0,10,0.00,,,0.00,Wunderground v.1.15,2013-06-27 00:15:00,
2013-06-26 18:20:00,101.1,36.9,29.64,WSW,257,0.0,0.0,11,0.00,,,0.00,Wunderground v.1.15,2013-06-27 00:20:00,
2013-06-26 18:25:00,101.0,31.8,29.64,West,264,0.0,0.0,9,0.00,,,0.00,Wunderground v.1.15,2013-06-27 00:25:00,
2013-06-26 18:30:00,100.9,31.7,29.64,SW,221,0.0,0.0,9,0.00,,,0.00,Wunderground v.1.15,2013-06-27 00:30:00,
2013-06-26 18:35:00,100.8,31.6,29.64,SW,220,0.0,0.0,9,0.00,,,0.00,Wunderground v.1.15,2013-06-27 00:35:00,
2013-06-26 18:40:00,100.6,31.5,29.64,SW,220,0.0,0.0,9,0.00,,,0.00,Wunderground v.1.15,2013-06-27 00:40:00,
2013-06-26 18:50:00,100.4,31.4,29.64,SW,232,0.0,0.0,9,0.00,,,0.00,Wunderground v.1.15,2013-06-27 00:50:00,
2013-06-26 18:55:00,100.3,31.3,29.64,SW,232,0.0,0.0,9,0.00,,,0.00,Wunderground v.1.15,2013-06-27 00:55:00,
2013-06-26 19:00:00,100.1,31.1,29.64,SW,232,0.0,0.0,9,0.00,,,0.00,Wunderground v.1.15,2013-06-27 01:00:00,
2013-06-26 19:05:00,100.1,33.7,29.62,SW,232,0.0,0.0,10,0.00,,,0.00,Wunderground v.1.15,2013-06-27 01:05:00,
2013-06-26 19:15:00,99.8,30.9,29.62,SW,232,0.0,0.0,9,0.00,,,0.00,Wunderground v.1.15,2013-06-27 01:15:00,
2013-06-26 19:25:00,99.4,35.6,29.62,SW,232,0.0,0.0,11,0.00,,,0.00,Wunderground v.1.15,2013-06-27 01:25:00,
2013-06-26 19:30:00,99.1,35.4,29.62,SW,232,0.0,0.0,11,0.00,,,0.00,Wunderground v.1.15,2013-06-27 01:30:00,
2013-06-26 19:40:00,98.4,29.9,29.63,SW,232,0.0,0.0,9,0.00,,,0.00,Wunderground v.1.15,2013-06-27 01:40:00,
2013-06-26 19:45:00,98.1,29.6,29.63,SW,232,0.0,0.0,9,0.00,,,0.00,Wunderground v.1.15,2013-06-27 01:45:00,
2013-06-26 19:50:00,97.8,29.4,29.63,SW,232,0.0,0.0,9,0.00,,,0.00,Wunderground v.1.15,2013-06-27 01:50:00,
2013-06-26 20:00:00,96.9,31.3,29.63,SW,232,0.0,0.0,10,0.00,,,0.00,Wunderground v.1.15,2013-06-27 02:00:00,
2013-06-26 20:05:00,96.4,31.0,29.59,SW,232,0.0,0.0,10,0.00,,,0.00,Wunderground v.1.15,2013-06-27 02:05:00,
2013-06-26 20:15:00,95.3,38.6,29.60,SW,232,0.0,0.0,14,0.00,,,0.00,Wunderground v.1.15,2013-06-27 02:15:00,
2013-06-26 20:20:00,94.4,31.8,29.60,SW,232,0.0,0.0,11,0.00,,,0.00,Wunderground v.1.15,2013-06-27 02:20:00,
2013-06-26 20:30:00,93.1,35.0,29.61,SW,232,0.0,0.0,13,0.00,,,0.00,Wunderground v.1.15,2013-06-27 02:30:00,
2013-06-26 20:35:00,92.6,32.6,29.61,SW,232,0.0,0.0,12,0.00,,,0.00,Wunderground v.1.15,2013-06-27 02:35:00,
2013-06-26 20:45:00,91.5,31.7,29.63,West,281,0.0,0.0,12,0.00,,,0.00,Wunderground v.1.15,2013-06-27 02:45:00,
2013-06-26 20:50:00,91.1,31.4,29.63,WNW,282,0.0,0.0,12,0.00,,,0.00,Wunderground v.1.15,2013-06-27 02:50:00,
2013-06-26 20:55:00,90.7,31.1,29.63,West,281,0.0,0.0,12,0.00,,,0.00,Wunderground v.1.15,2013-06-27 02:55:00,
2013-06-26 21:05:00,90.1,32.6,29.60,WNW,282,0.0,0.0,13,0.00,,,0.00,Wunderground v.1.15,2013-06-27 03:05:00,
2013-06-26 21:15:00,89.3,32.0,29.61,WNW,282,0.0,0.0,13,0.00,,,0.00,Wunderground v.1.15,2013-06-27 03:15:00,
2013-06-26 21:20:00,88.8,31.6,29.61,WNW,282,0.0,0.0,13,0.00,,,0.00,Wunderground v.1.15,2013-06-27 03:20:00,
2013-06-26 21:25:00,88.3,31.2,29.62,WNW,282,0.0,0.0,13,0.00,,,0.00,Wunderground v.1.15,2013-06-27 03:25:00,
2013-06-26 21:30:00,87.9,30.9,29.62,West,281,0.0,0.0,13,0.00,,,0.00,Wunderground v.1.15,2013-06-27 03:30:00,
2013-06-26 21:40:00,87.3,32.3,29.62,WSW,238,0.0,2.0,14,0.00,,,0.00,Wunderground v.1.15,2013-06-27 03:40:00,
2013-06-26 21:50:00,86.9,32.0,29.63,WSW,238,0.0,0.0,14,0.00,,,0.00,Wunderground v.1.15,2013-06-27 03:50:00,
2013-06-26 21:55:00,86.7,33.5,29.63,WSW,237,0.0,0.0,15,0.00,,,0.00,Wunderground v.1.15,2013-06-27 03:55:00,
2013-06-26 22:00:00,86.5,31.6,29.63,WSW,237,0.0,0.0,14,0.00,,,0.00,Wunderground v.1.15,2013-06-27 04:00:00,
2013-06-26 22:05:00,86.3,31.5,29.62,WSW,238,0.0,0.0,14,0.00,,,0.00,Wunderground v.1.15,2013-06-27 04:05:00,
2013-06-26 22:10:00,86.1,31.3,29.62,WSW,238,0.0,0.0,14,0.00,,,0.00,Wunderground v.1.15,2013-06-27 04:10:00,
2013-06-26 22:15:00,85.9,31.2,29.63,WSW,238,0.0,0.0,14,0.00,,,0.00,Wunderground v.1.15,2013-06-27 04:15:00,
2013-06-26 22:20:00,85.6,32.6,29.62,WSW,238,0.0,0.0,15,0.00,,,0.00,Wunderground v.1.15,2013-06-27 04:20:00,
2013-06-26 22:25:00,85.2,32.3,29.63,WSW,238,0.0,0.0,15,0.00,,,0.00,Wunderground v.1.15,2013-06-27 04:25:00,
2013-06-26 22:30:00,84.7,30.2,29.63,WSW,237,0.0,0.0,14,0.00,,,0.00,Wunderground v.1.15,2013-06-27 04:30:00,
2013-06-26 22:35:00,84.4,30.0,29.64,WSW,238,0.0,0.0,14,0.00,,,0.00,Wunderground v.1.15,2013-06-27 04:35:00,
2013-06-26 22:40:00,84.1,29.7,29.64,WSW,238,0.0,0.0,14,0.00,,,0.00,Wunderground v.1.15,2013-06-27 04:40:00,
2013-06-26 22:45:00,83.8,29.5,29.64,WSW,238,0.0,0.0,14,0.00,,,0.00,Wunderground v.1.15,2013-06-27 04:45:00,
2013-06-26 22:50:00,83.5,29.3,29.65,WSW,238,0.0,0.0,14,0.00,,,0.00,Wunderground v.1.15,2013-06-27 04:50:00,
2013-06-26 23:00:00,82.8,28.7,29.65,WSW,238,0.0,0.0,14,0.00,,,0.00,Wunderground v.1.15,2013-06-27 05:00:00,
2013-06-26 23:05:00,82.5,30.2,29.64,WSW,237,0.0,0.0,15,0.00,,,0.00,Wunderground v.1.15,2013-06-27 05:05:00,
2013-06-26 23:15:00,81.8,29.6,29.65,WSW,237,0.0,0.0,15,0.00,,,0.00,Wunderground v.1.15,2013-06-27 05:15:00,
2013-06-26 23:20:00,81.4,29.3,29.65,WSW,238,0.0,0.0,15,0.00,,,0.00,Wunderground v.1.15,2013-06-27 05:20:00,
2013-06-26 23:25:00,81.0,27.3,29.65,WSW,238,0.0,0.0,14,0.00,,,0.00,Wunderground v.1.15,2013-06-27 05:25:00,
2013-06-26 23:30:00,80.7,27.0,29.65,WSW,237,0.0,0.0,14,0.00,,,0.00,Wunderground v.1.15,2013-06-27 05:30:00,
2013-06-26 23:35:00,80.5,28.6,29.65,WSW,237,0.0,0.0,15,0.00,,,0.00,Wunderground v.1.15,2013-06-27 05:35:00,
2013-06-26 23:40:00,80.3,26.7,29.66,WSW,238,0.0,0.0,14,0.00,,,0.00,Wunderground v.1.15,2013-06-27 05:40:00,
2013-06-26 23:45:00,80.1,26.6,29.66,WSW,237,0.0,0.0,14,0.00,,,0.00,Wunderground v.1.15,2013-06-27 05:45:00,
2013-06-26 23:55:00,79.7,26.3,29.66,WSW,238,0.0,0.0,14,0.00,,,0.00,Wunderground v.1.15,2013-06-27 05:55:00,